Showing default

NOAA 4, 7529

Orbit data source: Space-Track

NOAA 4, 7529 is a payload satellite owned by NOAA (US) in SSO that was launched on Fri, 15 Nov 1974 UTC via a DELTA 2310 launch vehicle from the Air Force Western Test Range (AFWTR). Payload-class satellites include a variety of spacecraft equipped with specific instruments for various scientific and technological missions. These include communications satellites like Starlink; space stations such as the ISS; scientific satellites like the Hubble; Earth observation satellites from companies like Planet Labs, Umbra, and HawkEye 360; GPS; miniature CubeSats for education and research; and military/defense satellites.

Loading next visibility...
Identifier
7529, 1974-089A
Orbit
SSO
Country
Flag of USUS
Related business
Manufacturer
RCA/East Windsor
Mission
Non-operational spacecraft
Bus & Motor
TIROS M, Unknown motor
Mass
345 kg wet, 345 kg dry
Launch date (UTC)
1974-11-15 (51 years ago)
Launch vehicle
DELTA 2310
Launch site
Air Force Western Test Range (AFWTR)
Object type
Payload
Rocket body
Debris
Shape & HBR
Unknown
Radar Cross Section
Large (>1 m²)

Expand to show TLE details & history
Last TLE update: 7 hours ago

TLE from 7 hours ago
0 NOAA 4
1  7529U 74089A   26035.52046444 -.00000045  00000-0  56691-5 0  9998
2  7529 102.0073  46.8980 0009276  90.5817  31.6697 12.53200820342900
Epoch: 2026-02-04T12:29Z
TLE epoch observation values (Epoch: 2026-02-04T12:29:28.127Z)
Latitude
55.8561°
Longitude
-76.97036°
Altitude
1,454.04 km
Speed
7.143 km/s
True Right ascension
16h 20m 19s
True Declination
55° 42' 37"
Sunlit
Object was in daylight at epoch
Visualization orbit readout
Latitude
Unknown
Longitude
Unknown
Altitude
Unknown
Speed
Unknown
Apparent Right ascension
Unknown
Apparent Declination
Unknown
Sunlit
N/A
Visualization observer readout
Local Sidereal Time
21:23:55
Azimuth
Unknown
Elevation
Unknown
Doppler factor
Unknown
Orbital elements
Apogee altitude
1,455.953 km
Perigee altitude
1,441.433 km
Semi-major axis
7,826.83 km
Eccentricity
0.00093
Inclination
102.0073°
RAAN
46.898°
Arg. of periapsis
90.5817°
True anomaly
31.72556°
Mean anomaly
31.6697°
Eccentric anomaly
31.69763°
Mean motion
3.13447 °/min
Orbital period
114.85 mins
BSTAR
0.0000056691
Loading maneuver chart data...
Computing Atmospheric mass density...

Documentation

Showing up to 5 results
|